Home > Weather > Demmin > Past weeks

Flag for Germany Past Weather in Demmin, Mecklenburg-Western Pomerania, Germany — Yesterday and Last 2 Weeks

Now
70 °F

Scattered clouds.


Feels Like: 70 °F
Forecast: 54 / 74 °F
Wind: 10 mph from West

Location: Laage

Current Time: Jul 26, 2016 at 12:28:11 PM

Latest Report: Jul 26, 2016 at 11:20 AM


Visibility: N/A

Pressure: 30.12 "Hg

Humidity: 64%

Dew Point: 57 °F

Location of DemminLocation

Past Weather in Demmin — Graph

°F

Demmin Temperature Yesterday

Maximum temperature yesterday: 84 °F (at 3:20 PM)
Minimum temperature yesterday: 59 °F (at 5:20 AM)
Average temperature yesterday: 70 °F

High & Low Weather Summary for the Past Weeks

 TemperatureHumidityPressure
High84 °F (Jul 21, 5:20 PM)100% (Jul 14, 3:20 AM)30.18 "Hg (Jul 14, 3:20 AM)
Low52 °F (Jul 14, 3:20 AM)30% (Jul 22, 1:20 PM)29.71 "Hg (Jul 11, 10:20 AM)
Average66 °F73%30.02 "Hg
* Reported Jul 11 10:20 AM — Jul 26 10:20 AM, Demmin, Weather by CustomWeather, © 2016

Note: Actual official high and low records may vary slightly from our data, if they occured in-between our weather recording intervals... More about our weather records

Advertising

Demmin Weather History for the Previous 24 Hours

Scroll right to see more
 ConditionsComfort  
Time TempWeatherWind HumidityBarometerVisibility
10:20 AM
Tue, Jul 26
68 °FScattered clouds.10 mph78%30.09 "HgN/A
9:20 AM68 °FScattered clouds.13 mph83%30.09 "HgN/A
8:20 AM68 °FPartly sunny.9 mph83%30.09 "HgN/A
7:20 AM64 °FPartly sunny.8 mph94%30.07 "Hg4 mi
6:20 AM66 °FFog.6 mph94%30.07 "Hg3 mi
5:20 AM64 °FFog.6 mph94%30.07 "Hg3 mi
4:20 AM64 °FPassing clouds.1 mph94%30.04 "Hg4 mi
3:20 AM64 °FFog.5 mph100%30.04 "Hg5 mi
2:20 AM64 °FFog.5 mph94%30.04 "Hg5 mi
1:20 AM64 °FFog.3 mph94%30.04 "Hg6 mi
12:20 AM64 °FFog.1 mph100%30.04 "Hg6 mi
11:20 PM
Mon, Jul 25
64 °FFog.3 mph100%30.04 "HgN/A
10:20 PM66 °FFog.2 mph94%30.04 "HgN/A
9:20 PM68 °FPartly sunny.3 mph88%30.04 "HgN/A
8:20 PM68 °FPartly sunny.5 mph88%30.04 "HgN/A
7:20 PM68 °FThundershowers. Broken clouds.7 mph88%30.04 "HgN/A
7:04 PM68 °FThunderstorms. Partly sunny.2 mph88%30.04 "HgN/A
6:20 PM68 °FThunderstorms. Partly sunny.9 mph83%30.01 "Hg4 mi
5:45 PM81 °FThunderstorms. Partly sunny.3 mph51%30.01 "HgN/A
5:20 PM82 °FScattered showers. Broken clouds.6 mph48%30.01 "HgN/A
4:20 PM84 °FPartly sunny.3 mph43%30.01 "HgN/A
3:20 PM84 °FPartly sunny.5 mph43%30.01 "HgN/A
2:20 PM82 °FPartly sunny.7 mph45%30.01 "HgN/A
1:20 PM82 °FScattered clouds.6 mph42%30.01 "HgN/A
12:20 PM81 °FScattered clouds.7 mph48%30.01 "HgN/A
Weather by CustomWeather, © 2016

See weather overviewHow to use our weather pages